User: anonymous   Login
Location: Unspecified
(0.0000°N, 0.0000°E)
Time: 04:21:21
(UTC+00:00)
Language:

ASTRA 1KR - Orbit

View from above orbital plane
View from above orbital plane
View from above satellite
View from above satellite

Ground track
Ground track

The orbit data is extracted from the following two-line orbital elements,

1 29055U 06012A   16206.21592351  .00000108  00000-0  00000+0 0  9991
2 29055   0.0646 271.7758 0003078 259.7762 227.7238  1.00272243 37497
Epoch (UTC): 24 July 2016 05:10:55
Eccentricity: 0.0003078
inclination: 0.0646°
perigee height: 35773 km
apogee height: 35799 km
right ascension of ascending node: 271.7758°
argument of perigee: 259.7762°
revolutions per day: 1.00272243
mean anomaly at epoch: 227.7238°
orbit number at epoch: 3749

The dashed part of the orbit path shows where the satellite is in the earth's shadow,  

DLR